When you browse on this site, cookies collect data to enhance your experience and personalize the content and advertising you see.
Visit our Privacy Policy to learn more. By continuing to use the site, you agree to this use of cookies and data.
  • En España
  • Lista de países
  • Para 7 días
  • Temperatura del agua
  • El tiempo en el mapa
  • Informadores
  • user-avatar
    Iniciar sesión

    Tiempo cada hora Quillota

    Hoy, 19 Enero, Domingo

    Tiempo Temperatura Precipitaciones Viento Presión Humedad
    00:00 +15°C° 0 mm 0 mps 747 mmHg 91%
    01:00 +14°C° 0 mm 0 mps 747 mmHg 91%
    02:00 +14°C° 0 mm 0 mps 747 mmHg 90%
    03:00 +14°C° 0 mm 0 mps 747 mmHg 90%
    04:00 +14°C° 0 mm 0 mps 747 mmHg 89%
    05:00 +19°C° 0 mm 1 mps 747 mmHg 80%
    06:00 +22°C° 0 mm 1 mps 748 mmHg 72%
    07:00 +24°C° 0 mm 1 mps 748 mmHg 63%
    08:00 +26°C° 0 mm 2 mps 748 mmHg 59%
    09:00 +27°C° 0 mm 3 mps 749 mmHg 55%
    10:00 +29°C° 0 mm 4 mps 749 mmHg 51%
    11:00 +29°C° 0 mm 4 mps 749 mmHg 49%
    12:00 +30°C° 0 mm 4 mps 749 mmHg 47%
    13:00 +30°C° 0 mm 4 mps 749 mmHg 45%
    14:00 +30°C° 0 mm 4 mps 749 mmHg 45%
    15:00 +29°C° 0 mm 3 mps 749 mmHg 46%
    16:00 +29°C° 0 mm 3 mps 749 mmHg 46%
    17:00 +25°C° 0 mm 2 mps 749 mmHg 59%
    18:00 +21°C° 0 mm 2 mps 749 mmHg 73%
    19:00 +19°C° 0 mm 1 mps 749 mmHg 87%
    20:00 +18°C° 0 mm 1 mps 749 mmHg 89%
    21:00 +15°C° 0 mm 0 mps 749 mmHg 90%
    22:00 +14°C° 0 mm 0 mps 750 mmHg 92%
    23:00 +14°C° 0 mm 0 mps 749 mmHg 92%

    Mañana, 20 Enero, Lunes

    Tiempo Temperatura Precipitaciones Viento Presión Humedad
    00:00 +14°C° 0 mm 0 mps 749 mmHg 92%
    01:00 +14°C° 0 mm 0 mps 749 mmHg 92%
    02:00 +14°C° 0 mm 0 mps 748 mmHg 91%
    03:00 +14°C° 0 mm 0 mps 748 mmHg 91%
    04:00 +13°C° 0 mm 0 mps 748 mmHg 90%
    05:00 +17°C° 0 mm 0 mps 748 mmHg 79%
    06:00 +22°C° 0 mm 1 mps 749 mmHg 67%
    07:00 +25°C° 0 mm 1 mps 749 mmHg 56%
    08:00 +27°C° 0 mm 2 mps 749 mmHg 51%
    09:00 +29°C° 0 mm 2 mps 749 mmHg 45%
    10:00 +31°C° 0 mm 3 mps 749 mmHg 40%
    11:00 +31°C° 0 mm 3 mps 749 mmHg 39%
    12:00 +33°C° 0 mm 3 mps 749 mmHg 39%
    13:00 +33°C° 0 mm 3 mps 749 mmHg 38%
    14:00 +31°C° 0 mm 3 mps 749 mmHg 40%
    15:00 +30°C° 0 mm 3 mps 749 mmHg 42%
    16:00 +30°C° 0 mm 3 mps 749 mmHg 44%
    17:00 +26°C° 0 mm 2 mps 749 mmHg 56%
    18:00 +23°C° 0 mm 2 mps 749 mmHg 68%
    19:00 +20°C° 0 mm 1 mps 749 mmHg 80%
    20:00 +19°C° 0 mm 1 mps 750 mmHg 83%
    21:00 +16°C° 0 mm 0 mps 750 mmHg 85%
    22:00 +15°C° 0 mm 0 mps 750 mmHg 88%
    23:00 +14°C° 0 mm 0 mps 749 mmHg 88%

    Pasado mañana, 21 Enero, Martes

    Tiempo Temperatura Precipitaciones Viento Presión Humedad
    00:00 +14°C° 0 mm 0 mps 749 mmHg 88%
    01:00 +14°C° 0 mm 0 mps 749 mmHg 87%
    02:00 +14°C° 0 mm 0 mps 749 mmHg 88%
    03:00 +13°C° 0 mm 0 mps 749 mmHg 89%
    04:00 +13°C° 0 mm 0 mps 748 mmHg 90%
    05:00 +16°C° 0 mm 0 mps 749 mmHg 80%
    06:00 +19°C° 0 mm 0 mps 749 mmHg 70%
    07:00 +24°C° 0 mm 1 mps 749 mmHg 59%
    08:00 +26°C° 0 mm 1 mps 749 mmHg 53%
    09:00 +29°C° 0 mm 2 mps 749 mmHg 47%
    10:00 +31°C° 0 mm 3 mps 749 mmHg 41%
    11:00 +31°C° 0 mm 3 mps 749 mmHg 40%
    12:00 +32°C° 0 mm 4 mps 749 mmHg 39%
    13:00 +33°C° 0 mm 4 mps 748 mmHg 38%
    14:00 +32°C° 0 mm 4 mps 748 mmHg 40%
    15:00 +30°C° 0 mm 4 mps 748 mmHg 41%
    16:00 +29°C° 0 mm 3 mps 748 mmHg 43%
    17:00 +25°C° 0 mm 3 mps 749 mmHg 57%
    18:00 +21°C° 0 mm 2 mps 749 mmHg 70%
    19:00 +18°C° 0 mm 1 mps 749 mmHg 84%
    20:00 +15°C° 0 mm 0 mps 749 mmHg 86%
    21:00 +14°C° 0 mm 0 mps 749 mmHg 88%
    22:00 +13°C° 0 mm 0 mps 749 mmHg 90%
    23:00 +12°C° 0 mm 0 mps 749 mmHg 91%

    22 Enero, Miércoles

    Tiempo Temperatura Precipitaciones Viento Presión Humedad
    00:00 +12°C° 0 mm 0 mps 748 mmHg 91%
    01:00 +13°C° 0 mm 1 mps 748 mmHg 92%
    02:00 +13°C° 0 mm 1 mps 748 mmHg 93%
    03:00 +11°C° 0 mm 0 mps 748 mmHg 93%
    04:00 +11°C° 0 mm 0 mps 748 mmHg 94%
    05:00 +15°C° 0 mm 1 mps 748 mmHg 86%
    06:00 +19°C° 0 mm 1 mps 749 mmHg 78%
    07:00 +21°C° 0 mm 1 mps 749 mmHg 70%
    08:00 +23°C° 0 mm 2 mps 749 mmHg 62%
    09:00 +26°C° 0 mm 3 mps 749 mmHg 54%
    10:00 +28°C° 0 mm 4 mps 749 mmHg 47%
    11:00 +28°C° 0 mm 4 mps 749 mmHg 46%
    12:00 +29°C° 0 mm 4 mps 749 mmHg 45%
    13:00 +30°C° 0 mm 4 mps 749 mmHg 45%
    14:00 +29°C° 0 mm 4 mps 749 mmHg 46%
    15:00 +29°C° 0 mm 3 mps 749 mmHg 47%
    16:00 +28°C° 0 mm 3 mps 748 mmHg 49%
    17:00 +25°C° 0 mm 2 mps 749 mmHg 62%
    18:00 +20°C° 0 mm 2 mps 749 mmHg 74%
    19:00 +18°C° 0 mm 1 mps 749 mmHg 87%
    20:00 +16°C° 0 mm 1 mps 749 mmHg 89%
    21:00 +14°C° 0 mm 0 mps 749 mmHg 91%
    22:00 +13°C° 0 mm 0 mps 749 mmHg 93%
    23:00 +13°C° 0 mm 0 mps 749 mmHg 93%

    23 Enero, Jueves

    Tiempo Temperatura Precipitaciones Viento Presión Humedad
    00:00 +12°C° 0 mm 0 mps 749 mmHg 94%
    01:00 +12°C° 0 mm 0 mps 749 mmHg 95%
    02:00 +12°C° 0 mm 0 mps 749 mmHg 94%
    03:00 +12°C° 0 mm 0 mps 749 mmHg 94%
    04:00 +13°C° 0 mm 0 mps 749 mmHg 93%
    05:00 +16°C° 0 mm 1 mps 750 mmHg 86%
    06:00 +19°C° 0 mm 1 mps 750 mmHg 79%
    07:00 +22°C° 0 mm 1 mps 751 mmHg 73%
    08:00 +23°C° 0 mm 2 mps 751 mmHg 65%
    09:00 +25°C° 0 mm 3 mps 751 mmHg 58%
    10:00 +27°C° 0 mm 4 mps 752 mmHg 50%
    11:00 +28°C° 0 mm 4 mps 751 mmHg 49%
    12:00 +28°C° 0 mm 4 mps 751 mmHg 47%
    13:00 +29°C° 0 mm 4 mps 751 mmHg 46%
    14:00 +28°C° 0 mm 4 mps 751 mmHg 47%
    15:00 +28°C° 0 mm 3 mps 751 mmHg 49%
    16:00 +27°C° 0 mm 3 mps 751 mmHg 51%
    17:00 +24°C° 0 mm 2 mps 751 mmHg 63%
    18:00 +20°C° 0 mm 2 mps 751 mmHg 74%
    19:00 +18°C° 0 mm 1 mps 751 mmHg 86%
    20:00 +16°C° 0 mm 1 mps 751 mmHg 88%
    21:00 +14°C° 0 mm 0 mps 751 mmHg 91%
    22:00 +13°C° 0 mm 0 mps 751 mmHg 93%
    23:00 +13°C° 0 mm 0 mps 751 mmHg 93%

    24 Enero, Viernes

    Tiempo Temperatura Precipitaciones Viento Presión Humedad
    00:00 +13°C° 0 mm 0 mps 751 mmHg 93%
    01:00 +13°C° 0 mm 0 mps 750 mmHg 93%
    02:00 +13°C° 0 mm 0 mps 750 mmHg 92%
    03:00 +13°C° 0 mm 0 mps 750 mmHg 91%
    04:00 +13°C° 0 mm 0 mps 750 mmHg 90%
    05:00 +16°C° 0 mm 0 mps 751 mmHg 81%
    06:00 +19°C° 0 mm 0 mps 751 mmHg 71%
    07:00 +21°C° 0 mm 0 mps 751 mmHg 62%
    08:00 +25°C° 0 mm 1 mps 751 mmHg 55%
    09:00 +28°C° 0 mm 2 mps 751 mmHg 49%
    10:00 +30°C° 0 mm 3 mps 751 mmHg 42%
    11:00 +30°C° 0 mm 3 mps 751 mmHg 40%
    12:00 +31°C° 0 mm 3 mps 751 mmHg 39%
    13:00 +32°C° 0 mm 4 mps 751 mmHg 37%
    14:00 +32°C° 0 mm 4 mps 751 mmHg 39%
    15:00 +30°C° 0 mm 3 mps 750 mmHg 41%
    16:00 +29°C° 0 mm 3 mps 750 mmHg 43%
    17:00 +25°C° 0 mm 2 mps 750 mmHg 57%
    18:00 +21°C° 0 mm 2 mps 751 mmHg 70%
    19:00 +18°C° 0 mm 1 mps 751 mmHg 84%
    20:00 +16°C° 0 mm 1 mps 751 mmHg 85%
    21:00 +14°C° 0 mm 0 mps 751 mmHg 86%
    22:00 +13°C° 0 mm 0 mps 751 mmHg 86%
    23:00 +13°C° 0 mm 0 mps 751 mmHg 86%
    Mostrar más